This is the latest recevied weather packets stored in our database for station/object N8VDS-10. If no packets are shown the sender has not sent any weather packets the latest 10 day(s).
| Time | Temp. | Humidity | Pressure | Rain* | Wind** | Luminosity | Snow |
|---|---|---|---|---|---|---|---|
| 1778191975 | 11.67° C | 38% | 1014.7 hPa | 0 mm | - | 250 W/m² | - |
| 1778191672 | 12.78° C | 38% | 1014.7 hPa | 0 mm | - | 273 W/m² | - |
| 1778191370 | 12.22° C | 39% | 1014.5 hPa | 0 mm | - | 174 W/m² | - |
| 1778191066 | 11.67° C | 39% | 1014.5 hPa | 0 mm | - | 348 W/m² | - |
| 1778190764 | 11.67° C | 40% | 1014.7 hPa | 0 mm | - | 197 W/m² | - |
| 1778190461 | 11.67° C | 39% | 1014.5 hPa | 0 mm | - | 213 W/m² | - |
| 1778190158 | 11.67° C | 39% | 1014.4 hPa | 0 mm | - | 191 W/m² | - |
| 1778189853 | 11.67° C | 39% | 1014.4 hPa | 0 mm | - | 144 W/m² | - |
| 1778189551 | 11.67° C | 40% | 1014.3 hPa | 0 mm | - | 323 W/m² | - |
| 1778189247 | 11.67° C | 39% | 1014.5 hPa | 0 mm | - | 186 W/m² | - |
| 1778188943 | 12.22° C | 38% | 1014.4 hPa | 0 mm | - | 161 W/m² | - |
| 1778188640 | 11.67° C | 40% | 1014.7 hPa | 0 mm | - | 536 W/m² | - |
| 1778188336 | 11.67° C | 42% | 1014.5 hPa | 0 mm | - | 172 W/m² | - |
| 1778188033 | 12.22° C | 40% | 1014.7 hPa | 0 mm | - | 185 W/m² | - |
| 1778187730 | 12.22° C | 40% | 1014.4 hPa | 0 mm | - | 211 W/m² | - |
| 1778187426 | 11.67° C | 41% | 1014.5 hPa | 0 mm | - | 198 W/m² | - |
| 1778187123 | 11.11° C | 42% | 1014.7 hPa | 0 mm | - | 247 W/m² | - |
| 1778186819 | 11.11° C | 40% | 1014.8 hPa | 0 mm | - | 193 W/m² | - |
| 1778186518 | 11.67° C | 40% | 1014.5 hPa | 0 mm | - | 163 W/m² | - |
| 1778186215 | 11.67° C | 39% | 1014.8 hPa | 0 mm | - | 644 W/m² | - |
| 1778185912 | 11.11° C | 41% | 1014.8 hPa | 0 mm | - | 186 W/m² | - |
| 1778185608 | 11.11° C | 40% | 1014.8 hPa | 0 mm | - | 164 W/m² | - |
| 1778185304 | 11.67° C | 38% | 1014.9 hPa | 0 mm | - | 535 W/m² | - |
| 1778184999 | 11.11° C | 39% | 1014.9 hPa | 0 mm | - | 186 W/m² | - |
| 1778184697 | 11.67° C | 39% | 1015 hPa | 0 mm | - | 641 W/m² | - |
* Rain latest hour (hover to see other rain measurements)
** Current wind speed in m/s (hover to see current wind gust speed)